User: anonymous   Login
Location: Limerick
(52.6800°N, 8.6400°W)
Time: 05:56:21
(UTC+01:00)
Language:

Sapphire - Orbit

View from above orbital plane
View from above orbital plane
View from above satellite
View from above satellite

Ground track
Ground track

The orbit data is extracted from the following two-line orbital elements,

1 26932U 01043D   17141.50401123 -.00000031 +00000-0 +19839-4 0  9999
2 26932 067.0543 162.3403 0009119 278.6519 081.3549 14.30248854816550
Epoch (UTC): 21 May 2017 12:05:46
Eccentricity: 0.0009119
inclination: 67.0543°
perigee height: 784 km
apogee height: 797 km
right ascension of ascending node: 162.3403°
argument of perigee: 278.6519°
revolutions per day: 14.30248854
mean anomaly at epoch: 81.3549°
orbit number at epoch: 81655

The dashed part of the orbit path shows where the satellite is in the earth's shadow,  

DLR